Regional Weather Roundup
Issued by NWS

Home | Current Version | Previous Version | Graphics & Text | Print | Product List | Glossary On
Versions: 1 2 3 4 5 6 7 8 9 10 11 12 13 14 15 16 17 18 19 20 21 22 23 24 25 26 27 28 29 30 31 32 33 34 35 36 37 38 39 40 41 42 43 44 45 46 47 48 49 50
879
ASUS44 KJAN 270803
RWRMS

MISSISSIPPI HOURLY WEATHER ROUNDUP
NATIONAL WEATHER SERVICE JACKSON MS
300 AM CDT SUN JUL 27 2014

NOTE: "FAIR: INDICATES FEW OR NO CLOUDS BELOW 12,000 FEET WITH NO
SIGNIFICANT WEATHER AND/OR OBSTRUCTIONS TO VISIBILITY.

MSZ001>002-007>008-010>013-018>021-025>028-034>036-270900-
NORTHWEST MISSISSIPPI

CITY           SKY/WX    TMP DP  RH WIND       PRES   REMARKS
CLARKSDALE     FAIR      77  77 100 CALM      29.98F
CLEVELAND      FAIR      76  76 100 CALM      29.98R
GREENWOOD      CLEAR     76  74  93 SW6       29.99S
GREENVILLE     CLEAR     76  73  91 S5        29.98S
GRENADA        FAIR      72  72 100 CALM      29.99S
OLIVE BRANCH   CLEAR     75  75 100 S6        29.97S
OXFORD         FAIR      75  73  94 SW6       30.00S
TUNICA         MOSUNNY   75  73  94 CALM      29.98R
$$

MSZ003>006-009-014>017-022>024-029>033-037>039-270900-
NORTHEAST MISSISSIPPI

CITY           SKY/WX    TMP DP  RH WIND       PRES   REMARKS
BELMONT        FAIR      76  73  91 CALM      30.00R
COLUMBUS AFB   CLEAR     73  73 100 S2        29.99S
CORINTH        FAIR      75  72  88 CALM      29.98S
GOLDN TRIANGLE CLEAR     75  70  83 SW3       30.00S
STARKVILLE       N/A     72  70  94 CALM      30.00S FOG
TUPELO         PTCLDY    76  73  91 CALM      29.98S
$$

MSZ040-058-270900-
CENTRAL MISSISSIPPI

CITY           SKY/WX    TMP DP  RH WIND       PRES   REMARKS
JACKSON INTL   CLEAR     78  75  90 SW7       30.01F
JACKSON HAWKNS CLEAR     80  73  79 SW8       30.02F
MERIDIAN KEY   CLEAR     74  72  93 S6        30.01S
MERIDIAN NAS   CLEAR     76  73  91 W5        30.01S
RAYMOND        FAIR      77  72  83 CALM      30.02S
VICKSBURG      CLEAR     78  75  90 SW3       30.01S
$$

MSZ059>079-270900-
SOUTH MISSISSIPPI

CITY           SKY/WX    TMP DP  RH WIND       PRES   REMARKS
BROOKHAVEN     FAIR      77  75  94 SW5       30.06S
COLUMBIA       FAIR      75  75 100 CALM      30.03S FOG
HATTIESBURG    CLEAR     80  75  84 CALM      30.04R
MCCOMB         CLEAR     77  74  90 CALM      30.05R
NATCHEZ        CLEAR     77  73  88 S5        30.05S
PINE BELT      CLEAR     77  73  88 SW3       30.05R
$$

MSZ080>082-270900-
COASTAL MISSISSIPPI

CITY           SKY/WX    TMP DP  RH WIND       PRES   REMARKS
BILOXI         CLEAR     81  77  86 W3        30.03S
PASCAGOULA     CLEAR     78  76  93 CALM      30.03S
GULFPORT       CLEAR     82  76  81 CALM      30.03S
$$



USA.gov is the U.S. government's official web portal to all federal, state and local government web resources and services.